Regional Weather Roundup
Issued by NWS Albany, NY

Home | Current Version | Previous Version | Text Only | Print | Product List | Glossary On
Versions: 1 2 3 4 5 6 7 8 9 10 11 12 13 14 15 16 17 18 19 20 21 22 23 24 25 26 27
000
ASUS41 KALY 210510
RWRALY

NEW YORK STATE HOURLY WEATHER ROUNDUP
NATIONAL WEATHER SERVICE ALBANY NY
1200 AM EST TUE NOV 21 2017

NOTE: "FAIR" INDICATES FEW OR NO CLOUDS BELOW 12,000 FEET WITH NO
SIGNIFICANT WEATHER AND/OR NO OBSTRUCTIONS TO VISIBILITY.

NYZ032-033-038>043-046>054-057>066-NYZ062>081-082-084-210600-
EAST


CITY           SKY/WX    TMP DP  RH WIND       PRES   REMARKS
ALBANY         CLEAR     34  27  75 S7        30.03S WCI  28
GLENS FALLS    PTCLDY    33  30  88 S3        30.01S
POUGHKEEPSIE   CLEAR     38  24  57 SW8       30.08S WCI  32
NEWBURGH       CLEAR     36  25  64 W6        30.09S WCI  31
MONTGOMERY     CLEAR     26  23  88 CALM      30.07S
WHITE PLAINS   CLEAR     40  22  48 VRB3      30.10S
ISLIP          PTCLDY    41  27  57 SW5       30.13S
NEW YORK CITY  PTCLDY    44  25  47 SW8       30.13S
CENTRAL PARK   CLEAR     42  24  49 SW7       30.15S
$$

NYZ005>009-017-018-044>046-055-056-210600-
CENTRAL


CITY           SKY/WX    TMP DP  RH WIND       PRES   REMARKS
FULTON         CLEAR     32  25  75 SE5       29.93F WCI  27
SYRACUSE       PTCLDY    30  24  78 S3        29.94F
ROME           CLEAR     32  27  81 E7        29.98F WCI  26
ELMIRA         CLEAR     36  24  62 W7        29.98F WCI  30
BINGHAMTON     CLEAR     34  22  61 SW14G20   29.96F WCI  25
MONTICELLO     CLEAR     26  23  88 CALM      30.05S
$$

NYZ026>034-041>043-087-210600-
NORTH


CITY           SKY/WX    TMP DP  RH WIND       PRES   REMARKS
WATERTOWN      CLEAR     38  28  67 S10       29.90S WCI  31
FORT DRUM      NOT AVBL
OGDENSBURG     FAIR      31  29  92 S5        29.88F WCI  26
MASSENA        CLOUDY    27  25  92 E6        29.93F WCI  20
SARANAC LAKE   CLOUDY    27  27 100 MISG      29.88S
PLATTSBURGH    CLOUDY    29  22  75 SW3       29.99F
$$

NYZ001>004-010>016-019>021-085-210600-
WEST


CITY           SKY/WX    TMP DP  RH WIND       PRES   REMARKS
NIAGARA FALLS  CLOUDY    45  29  53 SW25G32   29.83F
BUFFALO        MOCLDY    39  25  57 SW17      29.87S WCI  30
DUNKIRK        CLEAR     40  24  53 S23G29    29.90S WCI  30
JAMESTOWN      CLEAR     34  21  59 S13       29.92F WCI  25
WELLSVILLE     CLEAR     38  20  48 SW16G24   29.94F WCI  29
ROCHESTER      CLEAR     39  26  59 SW14G24   29.88F WCI  31
PENN YAN       CLEAR     39  23  52 S21G29    29.90F WCI  29
$$

             KEY
       WCI = WIND CHILL INDEX
       VSB = VISIBILITY
       HX  = HEAT INDEX
$$




USA.gov is the U.S. government's official web portal to all federal, state and local government web resources and services.